CW4438 Weather Reports


time (UTC)temp
F
wind
direction
speed
knots
gust
knots
rain 1hr
in
rain 24hr
in
rain mn
in
humidity
%
barometer
mb
20260507064601 42 288 0.0 0.0 0.00 0.00 0.00 87 1018.5
20260507064100 42 288 0.0 0.0 0.00 0.00 0.00 87 1018.4
20260507063603 42 288 0.0 0.0 0.00 0.00 0.00 87 1018.4
20260507063101 42 288 0.0 0.0 0.00 0.00 0.00 87 1018.3
20260507061601 42 288 0.0 0.0 0.00 0.00 0.00 87 1018.3
20260507061101 43 288 0.0 0.0 0.00 0.00 0.00 86 1018.3
20260507060601 43 288 0.0 0.0 0.00 0.00 0.00 86 1018.3
20260507060101 43 288 0.0 0.0 0.00 0.00 0.00 86 1018.3
20260507055602 43 288 0.0 0.0 0.00 0.00 0.00 86 1018.3
20260507054559 44 288 0.0 0.0 0.00 0.00 0.00 86 1018.3
20260507054047 44 288 0.0 0.0 0.00 0.01 0.00 86 1018.2
20260507053043 44 288 0.0 0.0 0.00 0.01 0.00 85 1018.3
20260507052544 44 288 0.0 0.0 0.00 0.01 0.00 85 1018.2
20260507052044 44 288 0.0 0.0 0.00 0.01 0.00 85 1018.1
20260507051044 45 288 0.0 0.9 0.00 0.01 0.00 85 1018.2
20260507050544 45 288 0.0 0.0 0.00 0.01 0.00 83 1018.1
20260507050043 45 288 0.0 0.0 0.00 0.01 0.00 83 1018.2
20260507045539 45 288 0.0 0.0 0.00 0.01 0.01 83 1018.0
20260507044537 45 288 0.0 0.0 0.00 0.01 0.01 83 1017.9
20260507044037 46 288 0.0 0.0 0.00 0.01 0.01 83 1017.8
20260507043538 46 288 0.0 0.0 0.00 0.01 0.01 82 1017.8
20260507043035 46 288 0.0 0.0 0.00 0.01 0.01 81 1017.8
20260507042532 46 288 0.0 0.0 0.00 0.01 0.01 81 1017.7
20260507042030 46 287 0.0 0.0 0.00 0.01 0.01 80 1017.8
20260507041530 46 287 0.0 0.0 0.00 0.01 0.01 81 1017.8
20260507041030 47 287 0.0 0.0 0.00 0.01 0.01 81 1017.7
20260507040029 47 287 0.0 0.0 0.00 0.01 0.01 81 1017.6
20260507035029 47 287 0.0 0.0 0.00 0.01 0.01 81 1017.6
20260507034029 47 287 0.0 0.0 0.00 0.01 0.01 81 1017.6
20260507033530 48 287 0.0 0.0 0.00 0.01 0.01 80 1017.7
20260507033029 48 287 0.0 0.0 0.00 0.01 0.01 80 1017.7
20260507032529 48 287 0.0 0.0 0.00 0.01 0.01 80 1017.6
20260507032029 48 287 0.0 0.0 0.00 0.01 0.01 79 1017.6
20260507031526 48 287 0.0 0.0 0.00 0.01 0.01 79 1017.6
20260507031025 49 287 0.0 0.9 0.00 0.01 0.01 80 1017.5
20260507030522 49 287 0.0 0.9 0.00 0.01 0.01 79 1017.4
20260507030020 49 287 0.0 0.0 0.00 0.01 0.01 79 1017.3
20260507025518 49 287 0.0 0.0 0.00 0.01 0.01 79 1017.2
20260507025017 49 287 0.0 0.0 0.00 0.01 0.01 79 1017.2
20260507024514 50 287 0.0 0.0 0.00 0.01 0.01 79 1017.1
20260507024013 50 287 0.0 0.0 0.00 0.01 0.01 79 1017.1
20260507023511 50 287 0.0 0.9 0.00 0.01 0.01 78 1017.0
20260507023005 50 287 0.0 0.9 0.00 0.01 0.01 77 1016.9
20260507022002 51 287 0.0 0.0 0.00 0.01 0.01 76 1016.9
20260507021502 51 287 0.0 0.9 0.00 0.01 0.01 73 1016.9
20260507021002 52 287 0.0 0.9 0.00 0.01 0.01 73 1016.8
20260507020502 52 287 0.0 0.0 0.00 0.01 0.01 72 1016.8
20260507015502 53 287 0.0 0.0 0.00 0.01 0.01 71 1016.8
20260507015003 53 287 0.0 0.0 0.00 0.01 0.01 69 1016.8
20260507014502 53 287 0.0 0.0 0.00 0.01 0.01 68 1016.7
20260507014002 54 287 0.0 0.0 0.00 0.01 0.01 69 1016.6
20260507012458 55 286 0.0 0.9 0.00 0.01 0.01 67 1016.3
20260507011956 55 288 0.0 0.9 0.00 0.01 0.01 65 1016.3
20260507011446 56 288 0.0 0.0 0.00 0.01 0.01 65 1016.3
20260507005939 57 282 0.0 0.9 0.00 0.01 0.01 66 1016.2
20260507005438 57 269 0.0 1.7 0.00 0.01 0.01 65 1016.1
20260507004938 57 289 0.0 1.7 0.00 0.01 0.01 65 1016.1
20260507004437 57 51 0.0 2.6 0.00 0.01 0.01 65 1016.0
20260507003934 57 318 0.0 2.6 0.00 0.01 0.01 67 1016.1
20260507003434 57 265 0.0 1.7 0.00 0.01 0.01 65 1016.1
20260507002934 57 221 0.0 1.7 0.00 0.01 0.01 66 1016.2
20260507002434 57 304 0.0 0.9 0.00 0.01 0.01 65 1016.0
20260507001934 58 304 0.0 0.9 0.00 0.01 0.01 67 1015.9
20260507001432 58 305 0.0 0.9 0.00 0.01 0.01 66 1015.9
20260507000933 58 306 0.0 0.9 0.00 0.01 0.01 65 1015.9
20260506235931 58 82 0.0 2.6 0.00 0.01 0.01 63 1015.9
20260506235430 58 82 0.0 2.6 0.00 0.01 0.01 62 1015.8
20260506234931 58 338 0.0 1.7 0.00 0.01 0.01 61 1015.9
20260506234430 58 336 0.9 2.6 0.00 0.01 0.01 60 1015.8
20260506233429 59 292 0.0 1.7 0.00 0.01 0.01 62 1015.7
20260506232930 59 52 0.0 1.7 0.00 0.01 0.01 60 1015.7
20260506232429 59 202 0.0 1.7 0.00 0.01 0.01 59 1015.7
20260506231930 59 30 0.0 1.7 0.00 0.01 0.01 61 1015.7
20260506231429 59 148 0.9 3.5 0.00 0.01 0.01 57 1015.7
20260506230929 60 144 0.9 3.5 0.00 0.01 0.01 61 1015.6
20260506230429 60 20 0.9 2.6 0.00 0.01 0.01 57 1015.4
20260506225929 60 197 0.9 2.6 0.00 0.01 0.01 58 1015.2
20260506225429 60 115 0.9 2.6 0.00 0.01 0.01 58 1015.2
20260506223930 61 117 1.7 3.5 0.00 0.01 0.01 57 1014.9
20260506223429 61 13 1.7 6.1 0.00 0.01 0.01 58 1014.8
20260506221931 61 205 1.7 7.8 0.00 0.01 0.01 57 1014.6
20260506220929 61 147 0.9 6.1 0.00 0.01 0.01 56 1014.7
20260506215929 62 17 0.9 6.1 0.00 0.01 0.01 58 1014.8
20260506215429 62 35 0.9 4.3 0.00 0.01 0.01 59 1015.0
20260506213929 62 153 1.7 3.5 0.00 0.01 0.01 59 1015.0
20260506213429 62 74 0.9 3.5 0.00 0.01 0.01 57 1015.1
20260506212930 62 57 0.9 2.6 0.00 0.01 0.01 62 1015.0
20260506212429 62 49 1.7 7.0 0.00 0.01 0.01 60 1015.0
20260506211929 62 173 1.7 7.0 0.00 0.01 0.01 61 1015.0
20260506211429 62 34 0.9 4.3 0.00 0.01 0.01 58 1015.1
20260506210931 61 19 0.9 2.6 0.00 0.01 0.01 59 1015.3
20260506210429 61 153 1.7 3.5 0.00 0.01 0.01 61 1015.4
20260506205929 61 144 1.7 4.3 0.00 0.01 0.01 61 1015.4
20260506205429 61 68 1.7 4.3 0.00 0.01 0.01 60 1015.5
20260506204930 61 115 1.7 4.3 0.00 0.01 0.01 59 1015.4
20260506204429 61 144 0.9 3.5 0.00 0.01 0.01 62 1015.4
20260506203930 60 346 1.7 3.5 0.00 0.01 0.01 63 1015.5
20260506203429 60 242 0.9 3.5 0.00 0.01 0.01 63 1015.8
20260506202930 60 338 0.9 3.5 0.00 0.01 0.01 62 1015.9
20260506202429 60 126 0.9 2.6 0.00 0.01 0.01 63 1016.0
20260506201429 60 307 0.9 4.3 0.00 0.01 0.01 62 1016.0
20260506200929 60 36 1.7 6.1 0.00 0.01 0.01 60 1016.1
20260506200429 61 107 1.7 6.1 0.00 0.01 0.01 59 1016.2
20260506195931 61 308 0.9 4.3 0.00 0.01 0.01 59 1016.2
20260506195430 61 83 0.9 3.5 0.00 0.01 0.01 56 1016.3
20260506194429 62 139 1.7 4.3 0.00 0.02 0.01 57 1016.3
20260506193929 62 28 0.9 4.3 0.00 0.02 0.01 56 1016.5
20260506193429 62 197 1.7 4.3 0.00 0.02 0.01 58 1016.3
20260506192929 62 32 1.7 4.3 0.00 0.02 0.01 60 1016.2
20260506192429 61 263 0.9 3.5 0.00 0.02 0.01 60 1016.5
20260506191930 60 219 0.9 2.6 0.00 0.02 0.01 64 1016.3
20260506191429 60 40 0.9 4.3 0.00 0.02 0.01 60 1016.3
20260506190930 60 101 0.9 4.3 0.00 0.02 0.01 62 1016.3
20260506185936 60 23 0.9 3.5 0.00 0.02 0.01 63 1016.5
20260506184934 60 12 0.9 7.0 0.00 0.02 0.01 61 1016.6
20260506183930 60 10 1.7 3.5 0.00 0.02 0.01 64 1016.7
20260506183429 59 337 0.9 4.3 0.00 0.02 0.01 65 1016.9
20260506182928 58 330 0.9 4.3 0.00 0.02 0.01 67 1017.0
20260506182429 58 110 0.9 2.6 0.00 0.02 0.01 64 1017.1
20260506181930 58 286 0.0 1.7 0.00 0.02 0.01 66 1017.2
20260506180429 58 261 0.9 4.3 0.00 0.02 0.01 64 1017.6
20260506175929 58 351 0.9 4.3 0.00 0.02 0.01 64 1017.6
20260506175429 58 74 0.9 2.6 0.00 0.02 0.01 64 1017.6
20260506173429 58 338 0.9 2.6 0.00 0.02 0.01 67 1018.1
20260506172929 57 348 0.9 3.5 0.00 0.02 0.01 66 1018.1
20260506172429 57 329 1.7 3.5 0.00 0.02 0.01 66 1018.1
20260506171429 56 106 0.9 3.5 0.00 0.02 0.01 69 1018.0
20260506170929 56 151 0.9 4.3 0.00 0.02 0.01 66 1018.0
20260506170429 56 165 0.9 4.3 0.00 0.02 0.01 67 1018.1
20260506165929 56 99 1.7 7.0 0.00 0.02 0.01 69 1018.0
20260506165429 56 121 1.7 7.0 0.00 0.02 0.01 66 1017.9
20260506164929 55 138 0.9 4.3 0.00 0.02 0.01 70 1017.7
20260506164428 55 281 0.9 3.5 0.00 0.02 0.01 69 1017.7
20260506163929 55 24 1.7 5.2 0.00 0.02 0.01 69 1017.6
20260506163429 55 281 1.7 6.1 0.00 0.02 0.01 69 1017.4
20260506162930 55 135 1.7 7.0 0.00 0.02 0.01 69 1017.6
20260506162428 55 130 1.7 7.0 0.00 0.02 0.01 70 1017.4
20260506161929 55 155 1.7 7.0 0.00 0.02 0.01 70 1017.1
20260506161428 55 115 1.7 7.0 0.00 0.02 0.01 69 1017.0
20260506160930 55 130 0.9 4.3 0.00 0.02 0.01 73 1017.0
20260506160429 54 94 1.7 4.3 0.00 0.02 0.01 73 1017.0
20260506155931 53 277 1.7 4.3 0.00 0.02 0.01 75 1017.0
20260506155429 53 144 1.7 4.3 0.00 0.02 0.01 75 1017.0
20260506154930 52 318 0.9 5.2 0.00 0.02 0.01 76 1017.0
20260506154429 52 341 1.7 5.2 0.00 0.02 0.01 78 1016.8
20260506153930 52 347 1.7 6.1 0.00 0.02 0.01 74 1016.9
20260506153429 52 121 1.7 6.1 0.00 0.02 0.01 77 1016.8
20260506152929 51 17 1.7 7.8 0.00 0.02 0.01 76 1016.9
20260506152429 51 78 1.7 7.8 0.00 0.02 0.01 79 1016.9
20260506151930 51 128 1.7 4.3 0.00 0.02 0.01 78 1016.8
20260506150929 51 329 1.7 4.3 0.00 0.02 0.01 80 1016.8
20260506150422 51 28 1.7 4.3 0.00 0.02 0.01 80 1016.8
20260506145920 51 205 1.7 5.2 0.00 0.02 0.01 81 1016.9
20260506145420 51 18 1.7 5.2 0.00 0.02 0.01 79 1016.9
20260506144921 50 121 1.7 5.2 0.00 0.02 0.01 79 1016.8
20260506144420 50 313 1.7 5.2 0.00 0.02 0.01 79 1016.9
20260506143920 50 10 1.7 6.1 0.00 0.02 0.01 79 1016.8
20260506142918 50 351 0.9 7.8 0.00 0.02 0.01 81 1016.7
20260506142418 50 92 0.9 7.8 0.00 0.02 0.01 82 1016.5
20260506141918 50 304 1.7 6.1 0.00 0.02 0.01 82 1016.3
20260506141418 49 13 1.7 5.2 0.00 0.02 0.01 82 1016.6
20260506140919 49 100 1.7 5.2 0.00 0.02 0.01 82 1016.6
20260506140418 49 350 1.7 4.3 0.00 0.02 0.01 83 1016.7
20260506135918 49 317 0.9 4.3 0.00 0.02 0.01 85 1016.6
20260506135420 49 334 1.7 5.2 0.00 0.02 0.01 85 1016.5
20260506134415 49 14 0.9 2.6 0.00 0.02 0.01 87 1016.8
20260506133404 48 29 0.9 4.3 0.00 0.02 0.01 88 1016.7
20260506132903 48 50 0.9 3.5 0.00 0.02 0.01 87 1016.7
20260506132403 47 317 0.9 3.5 0.00 0.02 0.01 88 1016.5
20260506131902 47 59 0.9 3.5 0.00 0.02 0.01 89 1016.6
20260506131401 47 134 0.9 4.3 0.00 0.02 0.01 89 1016.3
20260506130901 47 45 0.9 4.3 0.00 0.02 0.01 89 1016.3
20260506130400 47 18 0.9 5.2 0.00 0.02 0.01 89 1016.6
20260506125858 47 96 0.9 5.2 0.00 0.02 0.01 90 1016.5
20260506125352 46 114 0.9 3.5 0.00 0.02 0.01 90 1016.2
20260506124847 46 5 1.7 4.3 0.00 0.02 0.01 90 1016.1
20260506123836 46 33 0.9 5.2 0.00 0.02 0.01 91 1016.2
20260506123335 46 331 0.9 3.5 0.00 0.02 0.01 91 1016.3
20260506122834 46 251 0.9 3.5 0.00 0.02 0.01 91 1016.1
20260506122334 46 158 0.9 3.5 0.00 0.02 0.01 91 1016.1
20260506121832 46 19 0.9 3.5 0.00 0.02 0.01 91 1015.9
20260506121332 46 332 0.0 2.6 0.00 0.02 0.01 91 1016.0
20260506120833 46 342 0.9 2.6 0.00 0.02 0.01 91 1015.8
20260506115330 45 326 0.9 2.6 0.00 0.02 0.01 91 1015.6
20260506114830 45 51 0.9 2.6 0.00 0.02 0.01 91 1015.8
20260506114330 45 296 0.0 2.6 0.00 0.02 0.01 91 1015.7
20260506113830 46 351 0.0 2.6 0.00 0.02 0.01 91 1015.7
20260506113330 45 275 0.0 1.7 0.00 0.02 0.01 91 1015.7
20260506112327 45 138 0.0 2.6 0.00 0.02 0.01 91 1015.6
20260506111808 45 302 0.0 2.6 0.00 0.02 0.01 91 1015.6
20260506110801 45 31 0.0 3.5 0.00 0.02 0.01 91 1015.2
20260506110302 45 15 0.9 3.5 0.00 0.02 0.01 91 1015.2
20260506105802 45 350 0.9 3.5 0.00 0.02 0.01 91 1015.0
20260506105304 45 284 0.0 1.7 0.00 0.02 0.01 91 1015.0
20260506104801 45 32 0.0 1.7 0.00 0.02 0.01 91 1014.9
20260506104303 45 27 0.0 1.7 0.00 0.02 0.01 91 1014.8
20260506103801 45 300 0.0 1.7 0.00 0.02 0.01 91 1014.4
20260506103302 45 5 0.0 1.7 0.00 0.02 0.01 91 1014.4
20260506102800 45 338 0.0 2.6 0.00 0.02 0.01 91 1014.2
20260506102305 45 350 0.9 3.5 0.00 0.02 0.01 91 1014.2
20260506101801 45 350 0.9 3.5 0.00 0.03 0.01 91 1014.0
20260506101301 45 44 0.0 1.7 0.00 0.03 0.01 91 1013.8
20260506100800 45 89 0.0 1.7 0.00 0.03 0.01 91 1013.5
20260506100301 45 98 0.0 1.7 0.00 0.04 0.01 91 1013.3
20260506095800 45 250 0.9 3.5 0.00 0.04 0.01 91 1013.3
20260506095301 45 66 0.9 3.5 0.00 0.04 0.01 91 1013.3
20260506094800 45 254 0.9 6.1 0.00 0.04 0.01 91 1013.1
20260506094301 45 43 0.9 6.1 0.00 0.04 0.01 91 1012.9
20260506093303 45 56 0.9 2.6 0.00 0.04 0.01 92 1012.7
20260506092305 46 115 0.0 2.6 0.00 0.04 0.01 92 1012.7
20260506091802 46 40 0.9 2.6 0.00 0.04 0.01 92 1012.8
20260506091302 46 11 0.9 2.6 0.00 0.04 0.01 92 1012.9
20260506090802 46 333 0.9 2.6 0.00 0.05 0.01 93 1012.7
20260506090302 46 96 0.0 1.7 0.00 0.05 0.01 93 1012.8
20260506085802 46 72 0.0 1.7 0.00 0.05 0.01 93 1012.9
20260506084239 46 36 0.0 1.7 0.00 0.20 0.01 93 1012.7
20260506083733 46 46 0.9 2.6 0.00 0.26 0.01 93 1012.7
20260506082730 46 351 0.9 3.5 0.00 0.29 0.01 93 1012.9
20260506082230 45 78 0.9 3.5 0.00 0.31 0.01 93 1012.6
20260506081730 45 84 0.9 3.5 0.00 0.33 0.01 93 1012.5
20260506081231 45 148 0.9 3.5 0.00 0.33 0.01 93 1012.2
20260506080730 45 111 0.9 5.2 0.00 0.33 0.01 93 1012.4
20260506072727 46 336 0.0 1.7 0.00 0.78 0.01 94 1012.1
20260506071202 46 314 0.9 6.1 0.00 1.08 0.01 94 1012.2
20260506070702 46 256 1.7 8.7 0.00 1.20 0.01 94 1012.0
20260506070203 46 60 1.7 8.7 0.00 1.34 0.01 94 1012.1